This is the latest recevied weather packets stored in our database for station/object VY2CRA-4. If no packets are shown the sender has not sent any weather packets the latest 10 day(s).
| Time | Temp. | Humidity | Pressure | Rain* | Wind** | Luminosity | Snow |
|---|---|---|---|---|---|---|---|
| 1777497644 | 18.89° C | 22% | 1015 hPa | 0 mm | - | - | - |
| 1777496443 | 19.44° C | 21% | 1015 hPa | 0 mm | - | - | - |
| 1777495242 | 19.44° C | 21% | 1014.9 hPa | 0 mm | - | - | - |
| 1777494041 | 19.44° C | 20% | 1014.9 hPa | 0 mm | - | - | - |
| 1777492840 | 20° C | 19% | 1015.2 hPa | 0 mm | - | - | - |
| 1777491639 | 20.56° C | 18% | 1015.2 hPa | 0 mm | - | - | - |
| 1777490438 | 21.11° C | 18% | 1015.4 hPa | 0 mm | - | - | - |
| 1777489237 | 21.11° C | 18% | 1015.6 hPa | 0 mm | - | - | - |
| 1777488036 | 20.56° C | 18% | 1015.6 hPa | 0 mm | - | - | - |
| 1777486835 | 20° C | 19% | 1015.7 hPa | 0 mm | - | - | - |
| 1777485635 | 20° C | 19% | 1016 hPa | 0 mm | - | - | - |
| 1777484434 | 20° C | 20% | 1016.4 hPa | 0 mm | - | - | - |
| 1777483233 | 19.44° C | 21% | 1016.4 hPa | 0 mm | - | - | - |
| 1777482032 | 19.44° C | 21% | 1016.7 hPa | 0 mm | - | - | - |
| 1777480832 | 20° C | 21% | 1016.8 hPa | 0 mm | - | - | - |
| 1777479630 | 20° C | 21% | 1017 hPa | 0 mm | - | - | - |
| 1777478429 | 20° C | 21% | 1017.3 hPa | 0 mm | - | - | - |
| 1777477230 | 20.56° C | 20% | 1017.6 hPa | 0 mm | - | - | - |
| 1777476029 | 20.56° C | 20% | 1018 hPa | 0 mm | - | - | - |
| 1777474828 | 20.56° C | 20% | 1018.2 hPa | 0 mm | - | - | - |
| 1777473627 | 19.44° C | 22% | 1018.3 hPa | 0 mm | - | - | - |
| 1777472426 | 19.44° C | 21% | 1018.5 hPa | 0 mm | - | - | - |
| 1777471225 | 20° C | 22% | 1018.6 hPa | 0 mm | - | - | - |
| 1777468823 | 18.89° C | 23% | 1018.5 hPa | 0 mm | - | - | - |
| 1777467622 | 19.44° C | 22% | 1018.6 hPa | 0 mm | - | - | - |
* Rain since midnight (hover to see other rain measurements)
** Current wind speed in m/s (hover to see current wind gust speed)